Regional Weather Roundup
Issued by NWS

Home | Current Version | Previous Version | Text Only | Print | Product List | Glossary Off
Versions: 1 2 3 4 5 6 7 8 9 10 11 12 13 14 15 16 17 18 19 20 21 22 23 24 25 26 27 28 29 30 31 32 33 34 35 36 37 38 39 40 41 42 43 44 45 46 47 48 49 50

000
ASUS43 KTOP 271408
RWRKS

WEATHER ROUNDUP FOR KANSAS
NATIONAL WEATHER SERVICE GOODLAND KS
800 AM CST FRI FEB 27 2015

NOTE:  "FAIR" INDICATES FEW OR NO CLOUDS BELOW 12,000 FEET WITH NO
SIGNIFICANT WEATHER AND/OR OBSTRUCTIONS TO VISIBILITY.

KSZ001>006-013>018-027>032-041>047-271500-
NORTHWEST KANSAS

CITY           SKY/WX    TMP DP  RH WIND       PRES   REMARKS
GOODLAND       LGT SNOW  10   7  87 SE14      30.27S FOG     WCI  -6
HAYS           PTCLDY     9  -6  52 E7        30.50R
HILL CITY      CLOUDY     9  -1  64 SE8       30.48R
RUSSELL        PTCLDY     8   2  76 SE5       30.51R
$$

KSZ061>065-074>080-084>089-271500-
SOUTHWEST KANSAS

CITY           SKY/WX    TMP DP  RH WIND       PRES   REMARKS
DODGE CITY     LGT SNOW  11   6  81 SE9       30.43R
ELKHART          N/A     10   3  73 SE13        N/A  WCI  -5
GARDEN CITY    LGT SNOW  11   8  88 SE14      30.37S VSB 3/4 WCI  -5
GREAT BEND     CLOUDY    10  -2  56 SE6       30.52R
LIBERAL        CLOUDY    12   5  73 SE10      30.37F WCI  -1
PRATT          FLURRIES  12   1  62 E6        30.52R
$$

KSZ066>073-081>083-090>101-271500-
SOUTHEAST KANSAS

CITY           SKY/WX    TMP DP  RH WIND       PRES   REMARKS
CHANUTE        CLOUDY     9   0  67 NE8       30.62R
COFFEYVILLE    CLOUDY    10   1  67 NE13      30.61F WCI  -5
HUTCHINSON     CLOUDY    11   0  61 E7        30.55R
MEDICINE LODGE   N/A     13   2  61 E5        30.54R
NEWTON         CLOUDY     9  -4  56 E5        30.55S
PARSONS        CLOUDY    10   0  63 NE7       30.62S
WICHITA INTL   CLOUDY    12  -2  53 NE14      30.56R WCI  -3
WICHITA JABRA  CLOUDY    10   0  63 NE10      30.55F WCI  -4
WICHITA MCCONL MOSUNNY   11  -1  59 NE12      30.55S WCI  -4
WINFIELD       CLOUDY    11   0  61 NE12      30.58R WCI  -3
$$

KSZ007>012-019>026-033>040-048>060-102>105-271500-
NORTHEAST KANSAS

CITY           SKY/WX    TMP DP  RH WIND       PRES   REMARKS
CONCORDIA      PTCLDY     5   1  83 CALM      30.57R
EMPORIA        CLOUDY     7   1  76 NE7       30.60R
LAWRENCE       MOSUNNY    6  -1  73 NE6       30.65R
MANHATTAN      MOCLDY     8   2  76 CALM      30.63R
MARYSVILLE     CLEAR      1  -2  85 CALM      30.60R
OLATHE IND     MOSUNNY    5  -2  72 N5        30.63R
OLATHE EXE     MOSUNNY    6  -2  69 E5        30.61R
SALINA         CLOUDY    10   1  67 S3        30.59R
TOPEKA BILLARD MOSUNNY    7   0  73 SE3       30.66R
TOPEKA FORBES  MOSUNNY    7  -2  66 CALM      30.63R
$$


USA.gov is the U.S. government's official web portal to all federal, state and local government web resources and services.